Home   Weather   Dubai   Past weeks

Flag for United Arab Emirates Past Weather in Dubai, Dubai, United Arab Emirates — Yesterday and Last 2 Weeks

Now
100 °F

Sunny.


Feels Like: 104 °F
Forecast: 91 / 104 °F
Wind: 15 mph from Northwest

Location: Dubai International Airport

Current Time: Aug 30, 2016 at 5:10:52 PM

Latest Report: Aug 30, 2016 at 4:00 PM


Visibility: 10 mi

Pressure: 29.56 "Hg

Humidity: 31%

Dew Point: 64 °F

Location of DubaiLocation

Past Weather in Dubai — Graph

°F

Dubai Temperature Yesterday

Maximum temperature yesterday: 108 °F (at 11:00 AM)
Minimum temperature yesterday: 88 °F (at 7:00 AM)
Average temperature yesterday: 100 °F

High & Low Weather Summary for the Past Weeks

 TemperatureHumidityPressure
High115 °F (Aug 17, 4:00 PM)89% (Aug 16, 2:00 AM)29.71 "Hg (Aug 16, 2:00 AM)
Low88 °F (Aug 21, 5:00 AM)7% (Aug 18, 4:00 PM)29.36 "Hg (Aug 17, 4:00 PM)
Average99 °F36%29.56 "Hg
* Reported Aug 15 4:00 PM — Aug 30 4:00 PM, Dubai, Weather by CustomWeather, © 2016

Note: Actual official high and low records may vary slightly from our data, if they occured in-between our weather recording intervals... More about our weather records

Advertising

Dubai Weather History for the Previous 24 Hours

Scroll right to see more
 ConditionsComfort  
Time TempWeatherWind HumidityBarometerVisibility
4:00 PM
Tue, Aug 30
100 °FSunny.15 mph31%29.56 "Hg10 mi
3:00 PM104 °FPassing clouds.15 mph26%29.56 "HgN/A
2:00 PM104 °FSunny.15 mph21%29.59 "Hg10 mi
1:00 PM108 °FSunny.13 mph19%29.59 "Hg10 mi
12:00 PM109 °FPassing clouds.6 mph10%29.62 "HgN/A
11:00 AM108 °FPassing clouds.5 mph11%29.65 "HgN/A
10:00 AM104 °FPassing clouds.7 mph13%29.65 "HgN/A
9:00 AM100 °FPassing clouds.8 mph12%29.65 "HgN/A
8:00 AM93 °FPassing clouds.8 mph15%29.65 "HgN/A
7:00 AM93 °FPassing clouds.5 mph20%29.62 "HgN/A
6:00 AM93 °FPassing clouds.5 mph24%29.62 "HgN/A
5:00 AM95 °FPassing clouds.3 mph23%29.62 "HgN/A
4:00 AM95 °FPassing clouds.5 mph19%29.59 "HgN/A
3:00 AM97 °FPassing clouds.3 mph27%29.59 "HgN/A
2:00 AM99 °FClear.2 mph17%29.59 "Hg10 mi
1:00 AM99 °FClear.2 mph17%29.59 "Hg10 mi
12:00 AM100 °FPassing clouds.5 mph18%29.62 "HgN/A
11:00 PM
Mon, Aug 29
100 °FClear.5 mph16%29.62 "Hg10 mi
10:00 PM102 °FPassing clouds.3 mph17%29.62 "HgN/A
9:00 PM102 °FPassing clouds.3 mph17%29.62 "HgN/A
8:00 PM102 °FClear.6 mph17%29.62 "Hg10 mi
7:00 PM104 °FPassing clouds.9 mph14%29.59 "HgN/A
6:00 PM106 °FSunny.12 mph15%29.59 "Hg10 mi
5:00 PM106 °FPassing clouds.12 mph22%29.59 "HgN/A
Weather by CustomWeather, © 2016

See weather overviewHow to use our weather pages